�����͌���@�\�w���ɂ��Y���u�C�̈ړ��ʁi�\�w���j,,,,,,,,,,
�@,Time,Time int.,,Lat.,,Long.,,Direction,Speed,
Date(yyyy/mm/dd),(hh:mm),(hour),(min),(deg),(min),(deg),(min),(deg),(m/s),(knots)
2005/08/31,9:30,0,,36,47.784,137,4.140,,,
2005/08/31,9:35,0,5,36,47.790,137,4.152,64.12 ,0.08 ,0.16 
2005/08/31,9:40,0,5,36,47.802,137,4.164,45.85 ,0.11 ,0.21 
2005/08/31,9:45,0,5,36,47.826,137,4.170,17.44 ,0.16 ,0.30 
2005/08/31,9:50,0,5,36,47.826,137,4.188,90.05 ,0.11 ,0.21 
2005/08/31,10:00,0,10,36,47.850,137,4.182,1.38 ,0.07 ,0.14 
2005/08/31,10:05,0,5,36,47.862,137,4.176,349.97 ,0.08 ,0.15 
2005/08/31,10:10,0,5,36,47.874,137,4.176,18.64 ,0.08 ,0.15 
2005/08/31,10:15,0,5,36,47.886,137,4.158,319.04 ,0.10 ,0.19 
2005/08/31,10:20,0,5,36,47.904,137,4.158,15.07 ,0.09 ,0.18 
2005/08/31,10:25,0,5,36,47.904,137,4.152,195.05 ,0.02 ,0.05 
2005/08/31,10:30,0,5,36,47.910,137,4.164,75.92 ,0.08 ,0.15 
2005/08/31,10:35,0,5,36,47.916,137,4.140,280.90 ,0.10 ,0.20 
2005/08/31,10:40,0,5,36,47.916,137,4.152,99.40 ,0.07 ,0.14 
2005/08/31,10:45,0,5,36,47.910,137,4.146,200.35 ,0.05 ,0.10 
2005/08/31,10:50,0,5,36,47.910,137,4.140,237.02 ,0.02 ,0.04 
2005/08/31,10:55,0,5,36,47.904,137,4.146,139.63 ,0.06 ,0.12 
2005/08/31,11:00,0,5,36,47.910,137,4.140,321.25 ,0.05 ,0.09 
2005/08/31,11:10,0,10,36,47.910,137,4.134,270.06 ,0.01 ,0.03 
2005/08/31,11:20,0,10,36,47.916,137,4.140,38.87 ,0.02 ,0.05 
2005/08/31,11:25,0,5,36,47.934,137,4.134,345.05 ,0.11 ,0.22 
2005/08/31,11:30,0,5,36,47.922,137,4.116,241.24 ,0.10 ,0.20 


�A,Time,Time int.,,Lat.,,Long.,,Direction,Speed,
Date(yyyy/mm/dd),(hh:mm),(hour),(min),(deg),(min),(deg),(min),(deg),(m/s),(knots)
2005/08/31,11:55,0,,36,47.736,137,4.200,,,
2005/08/31,12:00,0,5,36,47.748,137,4.230,54.29 ,0.18 ,0.36 
2005/08/31,12:05,0,5,36,47.766,137,4.272,55.36 ,0.25 ,0.49 
2005/08/31,12:10,0,5,36,47.796,137,4.296,29.61 ,0.24 ,0.47 
2005/08/31,12:15,0,5,36,47.802,137,4.314,55.32 ,0.11 ,0.21 
2005/08/31,12:20,0,5,36,47.814,137,4.344,56.44 ,0.18 ,0.35 
2005/08/31,12:25,0,5,36,47.826,137,4.374,56.44 ,0.18 ,0.35 
2005/08/31,12:30,0,5,36,47.838,137,4.392,42.12 ,0.13 ,0.26 
2005/08/31,12:35,0,5,36,47.838,137,4.416,78.25 ,0.12 ,0.24 
2005/08/31,12:40,0,5,36,47.850,137,4.452,61.07 ,0.20 ,0.40 
2005/08/31,12:45,0,5,36,47.850,137,4.476,78.25 ,0.12 ,0.24 
2005/08/31,12:50,0,5,36,47.850,137,4.524,86.07 ,0.24 ,0.46 
2005/08/31,12:55,0,5,36,47.850,137,4.554,83.69 ,0.15 ,0.29 
2005/08/31,13:00,0,5,36,47.844,137,4.584,94.71 ,0.15 ,0.29 
2005/08/31,13:05,0,5,36,47.844,137,4.614,80.56 ,0.15 ,0.29 
2005/08/31,13:10,0,5,36,47.844,137,4.644,77.48 ,0.15 ,0.30 
2005/08/31,13:15,0,5,36,47.826,137,4.680,113.61 ,0.19 ,0.38 
2005/08/31,13:20,0,5,36,47.814,137,4.710,105.40 ,0.15 ,0.30 
2005/08/31,13:25,0,5,36,47.808,137,4.728,92.51 ,0.09 ,0.17 
2005/08/31,13:35,0,10,36,47.808,137,4.782,76.13 ,0.14 ,0.27 
2005/08/31,13:40,0,5,36,47.796,137,4.800,118.88 ,0.10 ,0.20 
2005/08/31,13:45,0,5,36,47.802,137,4.830,67.47 ,0.16 ,0.31 
2005/08/31,13:50,0,5,36,47.808,137,4.860,64.80 ,0.16 ,0.32 
2005/08/31,13:55,0,5,36,47.802,137,4.896,91.28 ,0.18 ,0.35 
2005/08/31,14:00,0,5,36,47.796,137,4.920,91.89 ,0.12 ,0.23 
2005/08/31,14:05,0,5,36,47.802,137,4.920,0.03 ,0.07 ,0.14 
2005/08/31,14:15,0,10,36,47.796,137,4.980,84.42 ,0.15 ,0.29 


�B,Time,Time int.,,Lat.,,Long.,,Direction,Speed,
Date(yyyy/mm/dd),(hh:mm),(hour),(min),(deg),(min),(deg),(min),(deg),(m/s),(knots)
2005/08/31,9:30,0,,36,47.598,137,4.236,,,
2005/08/31,9:35,0,5,36,47.586,137,4.284,106.26 ,0.27 ,0.52 
2005/08/31,9:45,0,10,36,47.550,137,4.380,113.61 ,0.28 ,0.54 
2005/08/31,9:50,0,5,36,47.556,137,4.422,80.71 ,0.23 ,0.44 
2005/08/31,9:55,0,5,36,47.556,137,4.482,90.05 ,0.31 ,0.61 
2005/08/31,10:00,0,5,36,47.532,137,4.518,127.23 ,0.24 ,0.48 
2005/08/31,10:05,0,5,36,47.556,137,4.572,62.56 ,0.32 ,0.62 
2005/08/31,10:10,0,5,36,47.544,137,4.596,117.26 ,0.16 ,0.31 
2005/08/31,10:15,0,5,36,47.478,137,4.614,164.39 ,0.42 ,0.82 
2005/08/31,10:20,0,5,36,47.514,137,4.644,41.00 ,0.26 ,0.51 
2005/08/31,10:25,0,5,36,47.526,137,4.650,46.53 ,0.07 ,0.14 
2005/08/31,10:30,0,5,36,47.538,137,4.668,62.22 ,0.12 ,0.23 
2005/08/31,10:35,0,5,36,47.550,137,4.680,53.86 ,0.10 ,0.19 
2005/08/31,10:40,0,5,36,47.514,137,4.698,156.68 ,0.25 ,0.49 
2005/08/31,10:45,0,5,36,47.526,137,4.698,10.73 ,0.06 ,0.12 
2005/08/31,10:50,0,5,36,47.532,137,4.734,82.48 ,0.19 ,0.37 
2005/08/31,10:55,0,5,36,47.508,137,4.746,156.01 ,0.17 ,0.34 
2005/08/31,11:00,0,5,36,47.526,137,4.752,15.06 ,0.11 ,0.22 
2005/08/31,11:05,0,5,36,47.532,137,4.758,38.86 ,0.05 ,0.09 
2005/08/31,11:10,0,5,36,47.556,137,4.776,31.15 ,0.17 ,0.34 
2005/08/31,11:15,0,5,36,47.544,137,4.824,107.32 ,0.25 ,0.48 
2005/08/31,11:25,0,10,36,47.562,137,4.860,58.18 ,0.11 ,0.20 
2005/08/31,11:30,0,5,36,47.568,137,4.890,67.47 ,0.16 ,0.31 
2005/08/31,11:35,0,5,36,47.550,137,4.932,112.51 ,0.23 ,0.44 


�C,Time,Time int.,,Lat.,,Long.,,Direction,Speed,
Date(yyyy/mm/dd),(hh:mm),(hour),(min),(deg),(min),(deg),(min),(deg),(m/s),(knots)
2005/08/31,11:55,0,,36,47.652,137,4.326,,,
2005/08/31,12:00,0,5,36,47.640,137,4.356,105.40 ,0.15 ,0.30 
2005/08/31,12:05,0,5,36,47.604,137,4.416,122.46 ,0.35 ,0.68 
2005/08/31,12:10,0,5,36,47.622,137,4.428,23.70 ,0.15 ,0.29 
2005/08/31,12:20,0,10,36,47.622,137,4.500,82.12 ,0.18 ,0.35 
2005/08/31,12:25,0,5,36,47.622,137,4.542,83.24 ,0.21 ,0.41 
2005/08/31,12:30,0,5,36,47.628,137,4.560,55.32 ,0.11 ,0.21 
2005/08/31,12:35,0,5,36,47.604,137,4.602,120.64 ,0.24 ,0.47 
2005/08/31,12:40,0,5,36,47.598,137,4.638,93.94 ,0.18 ,0.35 
2005/08/31,12:45,0,5,36,47.604,137,4.662,62.58 ,0.13 ,0.26 
2005/08/31,12:50,0,5,36,47.592,137,4.704,105.46 ,0.22 ,0.42 
2005/08/31,12:55,0,5,36,47.586,137,4.740,96.58 ,0.18 ,0.35 
2005/08/31,13:00,0,5,36,47.598,137,4.782,64.66 ,0.23 ,0.45 
2005/08/31,13:05,0,5,36,47.604,137,4.818,70.93 ,0.19 ,0.37 
2005/08/31,13:10,0,5,36,47.610,137,4.842,59.52 ,0.14 ,0.27 
2005/08/31,13:15,0,5,36,47.610,137,4.878,79.52 ,0.18 ,0.35 
2005/08/31,13:20,0,5,36,47.610,137,4.914,79.52 ,0.18 ,0.35 
2005/08/31,13:25,0,5,36,47.616,137,4.950,68.59 ,0.19 ,0.37 
2005/08/31,13:30,0,5,36,47.622,137,4.968,51.87 ,0.11 ,0.22 
2005/08/31,13:40,0,10,36,47.652,137,5.040,56.72 ,0.21 ,0.42 
2005/08/31,13:45,0,5,36,47.640,137,5.058,118.88 ,0.10 ,0.20 
2005/08/31,13:55,0,10,36,47.616,137,5.118,105.40 ,0.15 ,0.30 
2005/08/31,14:00,0,5,36,47.616,137,5.148,77.48 ,0.15 ,0.30 
2005/08/31,14:05,0,5,36,47.616,137,5.160,60.90 ,0.07 ,0.13 
2005/08/31,14:10,0,5,36,47.604,137,5.184,108.98 ,0.13 ,0.24 
